| time (UTC) | temp C | wind direction | speed KPH | gust KPH | rain 1hr cm | rain 24hr cm | rain mn cm | humidity % | barometer mb |
| 20260507231557 | 17 | 0 | 0.0 | 4.8 | 0.00 | 0.76 | 0.41 | 34 | 1006.9 |
| 20260507224553 | 18 | 0 | 0.0 | 6.4 | 0.00 | 0.76 | 0.41 | 34 | 1006.8 |
| 20260507223054 | 18 | 0 | 0.0 | 4.8 | 0.00 | 0.76 | 0.41 | 35 | 1007.0 |
| 20260507221556 | 18 | 0 | 3.2 | 12.9 | 0.00 | 0.76 | 0.41 | 32 | 1007.1 |
| 20260507220051 | 18 | 9 | 3.2 | 17.7 | 0.00 | 0.76 | 0.41 | 32 | 1007.0 |
| 20260507214615 | 18 | 10 | 6.4 | 17.7 | 0.00 | 0.76 | 0.41 | 32 | 1007.0 |
| 20260507213106 | 18 | 23 | 9.7 | 17.7 | 0.00 | 0.76 | 0.41 | 31 | 1007.1 |
| 20260507211613 | 19 | 267 | 3.2 | 20.9 | 0.00 | 0.76 | 0.41 | 33 | 1007.0 |
| 20260507210059 | 18 | 0 | 4.8 | 14.5 | 0.00 | 0.76 | 0.41 | 31 | 1006.8 |
| 20260507204606 | 18 | 0 | 4.8 | 19.3 | 0.00 | 0.76 | 0.41 | 33 | 1006.8 |
| 20260507203059 | 18 | 36 | 6.4 | 16.1 | 0.00 | 0.76 | 0.41 | 34 | 1006.7 |
| 20260507201552 | 18 | 49 | 6.4 | 17.7 | 0.00 | 0.76 | 0.41 | 36 | 1006.9 |
| 20260507200052 | 18 | 24 | 1.6 | 11.3 | 0.00 | 0.76 | 0.41 | 37 | 1007.0 |
| 20260507194628 | 18 | 254 | 0.0 | 14.5 | 0.00 | 0.76 | 0.41 | 35 | 1007.0 |
| 20260507193055 | 18 | 0 | 0.0 | 12.9 | 0.00 | 0.76 | 0.41 | 36 | 1007.2 |
| 20260507191554 | 17 | 32 | 6.4 | 16.1 | 0.00 | 0.76 | 0.41 | 36 | 1007.4 |
| 20260507190053 | 17 | 355 | 4.8 | 22.5 | 0.00 | 0.76 | 0.41 | 37 | 1007.6 |
| 20260507184605 | 17 | 327 | 6.4 | 20.9 | 0.00 | 0.76 | 0.41 | 38 | 1007.7 |
| 20260507183054 | 17 | 360 | 3.2 | 12.9 | 0.00 | 0.76 | 0.41 | 39 | 1008.0 |
| 20260507181555 | 17 | 28 | 3.2 | 17.7 | 0.00 | 0.76 | 0.41 | 40 | 1008.1 |
| 20260507174557 | 17 | 5 | 9.7 | 17.7 | 0.00 | 0.76 | 0.41 | 38 | 1008.5 |
| 20260507173058 | 16 | 37 | 6.4 | 16.1 | 0.00 | 0.76 | 0.41 | 38 | 1008.8 |
| 20260507171605 | 16 | 33 | 4.8 | 22.5 | 0.00 | 0.76 | 0.41 | 43 | 1009.0 |
| 20260507164606 | 15 | 281 | 3.2 | 14.5 | 0.00 | 0.76 | 0.41 | 47 | 1009.3 |
| 20260507163107 | 16 | 30 | 6.4 | 16.1 | 0.00 | 0.76 | 0.41 | 47 | 1009.7 |
| 20260507161555 | 16 | 0 | 6.4 | 19.3 | 0.00 | 0.76 | 0.41 | 48 | 1009.7 |
| 20260507160057 | 15 | 229 | 3.2 | 14.5 | 0.00 | 0.76 | 0.41 | 52 | 1009.8 |
| 20260507154559 | 15 | 10 | 4.8 | 17.7 | 0.00 | 0.76 | 0.41 | 54 | 1010.0 |
| 20260507153051 | 15 | 19 | 4.8 | 16.1 | 0.00 | 0.76 | 0.41 | 55 | 1010.4 |
| 20260507151556 | 14 | 59 | 6.4 | 19.3 | 0.00 | 0.76 | 0.41 | 56 | 1010.8 |
| 20260507150058 | 13 | 22 | 3.2 | 16.1 | 0.00 | 0.76 | 0.41 | 60 | 1010.7 |
| 20260507144554 | 13 | 360 | 6.4 | 14.5 | 0.00 | 0.76 | 0.41 | 63 | 1010.7 |
| 20260507143101 | 13 | 344 | 6.4 | 17.7 | 0.00 | 0.76 | 0.41 | 65 | 1011.0 |
| 20260507141553 | 12 | 5 | 9.7 | 19.3 | 0.00 | 0.76 | 0.41 | 66 | 1011.1 |
| 20260507140056 | 13 | 26 | 4.8 | 14.5 | 0.00 | 0.76 | 0.41 | 67 | 1011.0 |
| 20260507134559 | 12 | 9 | 3.2 | 16.1 | 0.00 | 0.76 | 0.41 | 70 | 1011.0 |
| 20260507133103 | 12 | 250 | 6.4 | 16.1 | 0.00 | 0.76 | 0.41 | 72 | 1011.0 |
| 20260507131611 | 12 | 341 | 8.0 | 17.7 | 0.00 | 0.76 | 0.41 | 74 | 1011.0 |
| 20260507130053 | 12 | 5 | 9.7 | 16.1 | 0.00 | 0.76 | 0.41 | 75 | 1011.0 |
| 20260507124551 | 11 | 338 | 6.4 | 16.1 | 0.00 | 0.76 | 0.41 | 77 | 1010.9 |
| 20260507123059 | 11 | 41 | 4.8 | 16.1 | 0.00 | 0.76 | 0.41 | 78 | 1010.9 |
| 20260507121601 | 11 | 360 | 8.0 | 16.1 | 0.00 | 0.76 | 0.41 | 79 | 1010.9 |
| 20260507120059 | 11 | 352 | 3.2 | 12.9 | 0.00 | 0.76 | 0.41 | 81 | 1010.9 |
| 20260507114604 | 11 | 360 | 3.2 | 9.7 | 0.00 | 0.76 | 0.41 | 83 | 1010.9 |
| 20260507113101 | 11 | 338 | 3.2 | 8.0 | 0.00 | 0.76 | 0.41 | 84 | 1010.8 |
| 20260507111605 | 11 | 355 | 3.2 | 9.7 | 0.00 | 0.76 | 0.41 | 85 | 1010.5 |
| 20260507104600 | 10 | 350 | 1.6 | 6.4 | 0.00 | 0.76 | 0.41 | 88 | 1010.1 |
| 20260507103100 | 10 | 360 | 0.0 | 4.8 | 0.00 | 0.76 | 0.41 | 89 | 1010.0 |
| 20260507101557 | 10 | 0 | 0.0 | 4.8 | 0.00 | 0.76 | 0.41 | 88 | 1009.6 |
| 20260507100103 | 10 | 0 | 0.0 | 4.8 | 0.00 | 0.76 | 0.41 | 88 | 1010.0 |
| 20260507094557 | 10 | 0 | 0.0 | 6.4 | 0.00 | 0.76 | 0.41 | 88 | 1009.8 |
| 20260507093058 | 10 | 0 | 1.6 | 8.0 | 0.00 | 0.76 | 0.41 | 88 | 1009.8 |
| 20260507091557 | 10 | 19 | 1.6 | 6.4 | 0.00 | 0.76 | 0.41 | 88 | 1009.5 |
| 20260507090054 | 10 | 62 | 0.0 | 11.3 | 0.00 | 0.76 | 0.41 | 88 | 1009.5 |
| 20260507084551 | 10 | 38 | 3.2 | 12.9 | 0.00 | 0.76 | 0.41 | 88 | 1009.2 |
| 20260507083054 | 10 | 340 | 4.8 | 16.1 | 0.00 | 0.76 | 0.41 | 87 | 1009.2 |
| 20260507081551 | 10 | 9 | 3.2 | 16.1 | 0.00 | 0.76 | 0.41 | 87 | 1009.1 |
| 20260507080100 | 10 | 5 | 8.0 | 17.7 | 0.00 | 0.76 | 0.41 | 87 | 1009.4 |
| 20260507074553 | 11 | 341 | 6.4 | 16.1 | 0.00 | 0.76 | 0.41 | 87 | 1009.9 |
| 20260507073052 | 11 | 325 | 4.8 | 14.5 | 0.03 | 0.76 | 0.41 | 89 | 1009.5 |
| 20260507071608 | 11 | 348 | 4.8 | 16.1 | 0.13 | 0.76 | 0.41 | 88 | 1009.6 |
| 20260507070056 | 11 | 360 | 8.0 | 17.7 | 0.30 | 0.76 | 0.41 | 89 | 1009.4 |
| 20260507064553 | 11 | 10 | 3.2 | 12.9 | 0.33 | 0.76 | 0.41 | 90 | 1009.2 |
| 20260507063055 | 11 | 351 | 6.4 | 16.1 | 0.38 | 0.74 | 0.38 | 89 | 1009.3 |
| 20260507061559 | 11 | 339 | 6.4 | 16.1 | 0.28 | 0.64 | 0.28 | 87 | 1009.5 |
| 20260507060100 | 12 | 334 | 4.8 | 19.3 | 0.10 | 0.46 | 0.10 | 86 | 1009.2 |
| 20260507054559 | 13 | 345 | 6.4 | 20.9 | 0.08 | 0.43 | 0.08 | 85 | 1009.3 |
| 20260507053124 | 13 | 36 | 4.8 | 11.3 | 0.00 | 0.36 | 0.00 | 82 | 1008.2 |
| 20260507051600 | 13 | 336 | 3.2 | 16.1 | 0.00 | 0.36 | 0.00 | 82 | 1008.7 |
| 20260507050051 | 13 | 5 | 1.6 | 6.4 | 0.00 | 0.36 | 0.00 | 83 | 1008.2 |
| 20260507044556 | 13 | 37 | 6.4 | 16.1 | 0.00 | 0.36 | 0.00 | 83 | 1008.3 |
| 20260507043053 | 13 | 5 | 3.2 | 12.9 | 0.08 | 0.36 | 0.00 | 84 | 1008.6 |
| 20260507041558 | 14 | 32 | 6.4 | 12.9 | 0.10 | 0.36 | 0.00 | 86 | 1008.6 |
| 20260507040055 | 14 | 25 | 6.4 | 16.1 | 0.18 | 0.36 | 0.00 | 85 | 1008.2 |
| 20260507034555 | 15 | 16 | 8.0 | 24.1 | 0.36 | 0.36 | 0.36 | 84 | 1008.3 |
| 20260507033057 | 17 | 291 | 0.0 | 4.8 | 0.28 | 0.28 | 0.28 | 90 | 1007.8 |
| 20260507031556 | 17 | 0 | 0.0 | 6.4 | 0.25 | 0.25 | 0.25 | 88 | 1007.5 |
| 20260507030053 | 18 | 0 | 0.0 | 4.8 | 0.18 | 0.18 | 0.18 | 84 | 1007.5 |
| 20260507024601 | 19 | 0 | 0.0 | 0.0 | 0.00 | 0.00 | 0.00 | 79 | 1007.4 |
| 20260507023055 | 19 | 0 | 0.0 | 3.2 | 0.00 | 0.00 | 0.00 | 78 | 1007.5 |
| 20260507021553 | 19 | 0 | 0.0 | 6.4 | 0.00 | 0.00 | 0.00 | 78 | 1007.5 |
| 20260507020055 | 19 | 0 | 0.0 | 9.7 | 0.00 | 0.00 | 0.00 | 77 | 1007.8 |
| 20260507014612 | 20 | 209 | 0.0 | 9.7 | 0.00 | 0.00 | 0.00 | 77 | 1007.9 |
| 20260507013053 | 20 | 0 | 0.0 | 4.8 | 0.00 | 0.00 | 0.00 | 76 | 1007.7 |
| 20260507011551 | 20 | 0 | 1.6 | 12.9 | 0.00 | 0.00 | 0.00 | 75 | 1007.8 |
| 20260507004605 | 20 | 0 | 1.6 | 11.3 | 0.00 | 0.00 | 0.00 | 75 | 1007.3 |
| 20260507003054 | 20 | 0 | 0.0 | 9.7 | 0.00 | 0.00 | 0.00 | 75 | 1007.2 |
| 20260507001556 | 20 | 254 | 1.6 | 9.7 | 0.00 | 0.00 | 0.00 | 75 | 1007.1 |
| 20260507000054 | 20 | 0 | 0.0 | 8.0 | 0.00 | 0.00 | 0.00 | 74 | 1007.0 |
| 20260506234554 | 20 | 0 | 1.6 | 11.3 | 0.00 | 0.00 | 0.00 | 73 | 1006.9 |
| 20260506233056 | 20 | 209 | 3.2 | 16.1 | 0.00 | 0.00 | 0.00 | 73 | 1006.9 |